Home > Weather > Bonn > Past weeks

Flag for Germany Past Weather in Bonn, North Rhine-Westphalia, Germany — Yesterday and Last 2 Weeks

Now
68 °F

Overcast.


Feels Like: 68 °F
Forecast: 56 / 68 °F
Wind: 5 mph from Southwest

Location: Aachen-Orsbach

Current Time: Jul 30, 2016 at 8:59:06 PM

Latest Report: Jul 30, 2016 at 7:00 PM


Visibility: 37 mi

Pressure: 29.92 "Hg

Humidity: 60%

Dew Point: 53 °F

Location of BonnLocation

Past Weather in Bonn — Graph

°F

Bonn Temperature Yesterday

Maximum temperature yesterday: 71 °F (at 7:00 PM)
Minimum temperature yesterday: 58 °F (at 3:00 AM)
Average temperature yesterday: 65 °F

High & Low Weather Summary for the Past Weeks

 TemperatureHumidityPressure
High92 °F (Jul 20, 4:00 PM)99% (Jul 24, 7:00 AM)30.30 "Hg (Jul 24, 7:00 AM)
Low56 °F (Jul 27, 7:00 AM)29% (Jul 20, 3:00 PM)29.85 "Hg (Jul 20, 4:00 PM)
Average69 °F74%30.07 "Hg
* Reported Jul 15 7:00 PM — Jul 30 7:00 PM, Bonn, Weather by CustomWeather, © 2016

Note: Actual official high and low records may vary slightly from our data, if they occured in-between our weather recording intervals... More about our weather records

Advertising

Bonn Weather History for the Previous 24 Hours

Scroll right to see more
 ConditionsComfort  
Time TempWeatherWind HumidityBarometerVisibility
7:00 PM
Sat, Jul 30
68 °FOvercast.5 mph60%29.92 "Hg37 mi
6:00 PM69 °FOvercast.5 mph61%29.92 "Hg31 mi
4:00 PM69 °FOvercast.5 mph59%29.93 "Hg43 mi
3:00 PM72 °FOvercast.5 mph55%29.92 "Hg43 mi
1:00 PM70 °FOvercast.5 mph59%29.92 "Hg22 mi
12:00 PM69 °FOvercast.6 mph63%29.92 "Hg8 mi
10:00 AM64 °FOvercast.6 mph73%29.93 "Hg22 mi
9:00 AM62 °FOvercast.6 mph77%29.93 "Hg37 mi
7:00 AM58 °FOvercast.5 mph84%29.93 "Hg43 mi
6:00 AM59 °FOvercast.3 mph82%29.92 "Hg34 mi
5:00 AMN/APassing clouds.96 mphN/AN/A2 mi
4:00 AM61 °FOvercast.3 mph77%29.92 "Hg43 mi
3:00 AM62 °FOvercast.3 mph79%29.92 "Hg34 mi
1:00 AM64 °FOvercast.2 mph80%29.92 "Hg25 mi
12:00 AM63 °FOvercast.2 mph87%29.92 "Hg22 mi
10:00 PM
Fri, Jul 29
65 °FOvercast.1 mph82%29.90 "Hg11 mi
9:00 PM67 °FOvercast.3 mph75%29.89 "Hg28 mi
Weather by CustomWeather, © 2016

See weather overviewHow to use our weather pages